Location: Habighorst
(52.7089°N, 10.2278°E)
Time: 07:16:41
(UTC+00:00)

Cosmos 1943 Rocket - Pass Details

Date: 13 January 2026
Orbit: 811 x 842 km, 71.0° (Epoch: 18 February)

Event Time Altitude Azimuth Distance (km) Brightness Sun altitude
Rises 06:00:01 0° 213° (SSW) 3,326 5.2 -12.2°
Reaches altitude 10° 06:02:26 10° 215° (SW) 2,396 4.4 -11.9°
Maximum altitude 06:07:55 79° 302° (WNW) 833 2.1 -11.1°
Drops below altitude 10° 06:13:27 10° 30° (NNE) 2,411 4.7 -10.3°
Sets 06:15:53 0° 32° (NNE) 3,349 5.4 -10.0°
